DL4NBA-1 Weather Reports


time (UTC)temp
C
wind
direction
speed
KPH
gust
KPH
rain 1hr
cm
rain 24hr
cm
rain mn
cm
humidity
%
barometer
mb
20260506013654 10 186 3.2 3.2 0.00 0.00 0.00
20260506013152 9 219 3.2 4.8 0.00 0.00 0.00
20260506012653 9 203 3.2 3.2 0.00 0.00 0.00
20260506012155 10 187 3.2 1.6 0.00 0.00 0.00
20260506011656 9 39 0.0 0.0 0.00 0.00 0.00
20260506010656 10 39 0.0 0.0 0.00 0.00 0.00
20260506010158 10 39 0.0 0.0 0.00 0.00 0.00
20260506005200 10 39 0.0 0.0 0.00 0.00 0.00
20260506004702 10 39 0.0 0.0 0.00 0.00 0.00
20260506003702 10 39 0.0 0.0 0.00 0.00 0.00
20260506002203 10 39 0.0 0.0 0.00 0.00 0.00
20260506001701 10 39 0.0 0.0 0.00 0.00 0.00
20260506001203 9 39 0.0 0.0 0.00 0.00 0.00
20260506000205 8 39 0.0 0.0 0.00 0.00 0.00
20260505235707 9 39 0.0 0.0 0.00 0.00 0.00
20260505235204 10 97 1.6 1.6 0.00 0.00 0.00
20260505234706 10 158 0.0 0.0 0.00 0.00 0.00
20260505234207 9 158 0.0 0.0 0.00 0.00 0.00
20260505233708 11 158 0.0 0.0 0.00 0.00 0.00
20260505233210 10 158 0.0 0.0 0.00 0.00 0.00
20260505232708 10 176 4.8 3.2 0.00 0.00 0.00
20260505232210 9 90 0.0 0.0 0.00 0.00 0.00
20260505230714 11 217 0.0 0.0 0.00 0.00 0.00
20260505225714 11 217 0.0 0.0 0.00 0.00 0.00
20260505224717 11 280 0.0 0.0 0.00 0.00 0.00
20260505224218 11 280 0.0 0.0 0.00 0.00 0.00
20260505223715 12 280 0.0 0.0 0.00 0.00 0.00
20260505223217 11 280 0.0 0.0 0.00 0.00 0.00
20260505222718 10 280 0.0 0.0 0.00 0.00 0.00
20260505221219 10 201 0.0 0.0 0.00 0.00 0.00
20260505215723 10 176 4.8 1.6 0.00 0.00 0.00
20260505214722 10 172 3.2 4.8 0.00 0.00 0.00
20260505214223 10 166 3.2 4.8 0.00 0.00 0.00
20260505213725 11 167 3.2 3.2 0.00 0.00 0.00
20260505213226 10 195 3.2 3.2 0.00 0.00 0.00
20260505211726 10 194 4.8 3.2 0.00 0.00 0.00
20260505211227 10 235 3.2 3.2 0.00 0.00 0.00
20260505210728 10 184 1.6 0.0 0.00 0.00 0.00
20260505210230 10 194 3.2 3.2 0.00 0.00 0.00
20260505205728 10 214 3.2 3.2 0.00 0.00 0.00
20260505204731 11 183 1.6 3.2 0.00 0.00 0.00
20260505204232 11 193 3.2 3.2 0.00 0.00 0.00
20260505203734 10 198 3.2 4.8 0.00 0.00 0.00
20260505202733 11 173 4.8 4.8 0.00 0.00 0.00
20260505201735 11 146 4.8 4.8 0.00 0.00 0.00
20260505201236 11 201 0.0 0.0 0.00 0.00 0.00
20260505200734 11 201 0.0 0.0 0.00 0.00 0.00
20260505200235 10 184 4.8 3.2 0.00 0.00 0.00
20260505195736 10 212 3.2 3.2 0.00 0.00 0.00
20260505194739 11 152 0.0 0.0 0.00 0.00 0.00
20260505194236 11 194 3.2 3.2 0.00 0.00 0.00
20260505192740 11 205 3.2 4.8 0.00 0.00 0.00
20260505192242 12 190 1.6 0.0 0.00 0.00 0.00
20260505191238 12 200 3.2 3.2 0.00 0.00 0.00
20260505190240 12 176 3.2 3.2 0.00 0.00 0.00
20260505185741 11 139 0.0 0.0 0.00 0.00 0.00
20260505185236 11 158 1.6 0.0 0.00 0.00 0.00
20260505184737 12 278 6.4 1.6 0.00 0.00 0.00
20260505183239 12 256 9.7 9.7 0.00 0.00 0.00
20260505182737 12 260 8.0 11.3 0.00 0.00 0.00
20260505182238 12 294 8.0 6.4 0.00 0.00 0.00
20260505181740 12 229 8.0 6.4 0.00 0.00 0.00
20260505180742 12 252 9.7 14.5 0.00 0.00 0.00
20260505180239 12 276 9.7 6.4 0.00 0.00 0.00
20260505175740 12 250 11.3 14.5 0.00 0.00 0.00
20260505175242 12 269 9.7 9.7 0.00 0.00 0.00
20260505174244 12 274 9.7 6.4 0.00 0.00 0.00
20260505172744 13 252 8.0 6.4 0.00 0.00 0.00
20260505172245 13 253 6.4 11.3 0.00 0.00 0.00
20260505171747 13 232 8.0 11.3 0.00 0.00 0.00
20260505170248 13 263 9.7 9.7 0.00 0.00 0.00
20260505165749 13 312 9.7 9.7 0.00 0.00 0.00
20260505164749 13 249 8.0 4.8 0.00 0.00 0.00
20260505164250 13 250 6.4 8.0 0.00 0.00 0.00
20260505163752 13 270 8.0 8.0 0.00 0.00 0.00
20260505163253 13 277 9.7 8.0 0.00 0.00 0.00
20260505162754 13 256 8.0 8.0 0.00 0.00 0.00
20260505160756 14 158 1.6 3.2 0.00 0.00 0.00
20260505160258 15 224 4.8 12.9 0.00 0.00 0.00
20260505153259 13 210 14.5 12.9 0.00 0.00 0.00
20260505152801 14 236 17.7 17.7 0.00 0.00 0.00
20260505152304 14 207 16.1 19.3 0.00 0.00 0.00
20260505150801 16 203 14.5 14.5 0.00 0.00 0.00
20260505130312 23 25 1.6 0.0 0.00 0.00 0.00
20260505124317 22 309 4.8 6.4 0.00 0.00 0.00
20260505123316 23 323 6.4 6.4 0.00 0.00 0.00
20260505122817 23 316 9.7 8.0 0.00 0.00 0.00
20260505122318 23 328 9.7 8.0 0.00 0.00 0.00
20260505121819 26 7 4.8 4.8 0.00 0.00 0.00
20260505121316 23 73 4.8 6.4 0.00 0.00 0.00
20260505120818 23 297 11.3 8.0 0.00 0.00 0.00
20260505120319 24 6 9.7 14.5 0.00 0.00 0.00
20260505114818 23 356 9.7 1.6 0.00 0.00 0.00
20260505113818 23 340 6.4 11.3 0.00 0.00 0.00
20260505113319 23 274 14.5 11.3 0.00 0.00 0.00
20260505112820 26 338 8.0 6.4 0.00 0.00 0.00
20260505112317 26 321 8.0 9.7 0.00 0.00 0.00
20260505111818 26 73 4.8 12.9 0.00 0.00 0.00
20260505111319 25 323 8.0 3.2 0.00 0.00 0.00
20260505110820 24 353 6.4 8.0 0.00 0.00 0.00
20260505110321 24 322 12.9 9.7 0.00 0.00 0.00
20260505101821 22 295 6.4 8.0 0.00 0.00 0.00
20260505101322 23 226 6.4 0.0 0.00 0.00 0.00
20260505100819 25 49 8.0 0.0 0.00 0.00 0.00
20260505095821 23 56 9.7 6.4 0.00 0.00 0.00
20260505095322 25 342 4.8 0.0 0.00 0.00 0.00
20260505094823 25 100 8.0 8.0 0.00 0.00 0.00
20260505093738 22 32 11.3 12.9 0.00 0.00 0.00
20260505092739 22 14 11.3 8.0 0.00 0.00 0.00
20260505092240 23 11 11.3 4.8 0.00 0.00 0.00
20260505091240 22 326 6.4 1.6 0.00 0.00 0.00
20260505090741 22 62 4.8 6.4 0.00 0.00 0.00
20260505085743 23 349 4.8 0.0 0.00 0.00 0.00
20260505084743 21 3 11.3 14.5 0.00 0.00 0.00
20260505084244 21 7 6.4 3.2 0.00 0.00 0.00
20260505083745 22 69 6.4 6.4 0.00 0.00 0.00
20260505083246 21 53 9.7 11.3 0.00 0.00 0.00
20260505082744 20 10 1.6 12.9 0.00 0.00 0.00
20260505082245 20 14 9.7 8.0 0.00 0.00 0.00
20260505081747 20 329 12.9 11.3 0.00 0.00 0.00
20260505081248 20 266 1.6 0.0 0.00 0.00 0.00
20260505080748 21 354 0.0 0.0 0.00 0.00 0.00
20260505080247 20 20 6.4 3.2 0.00 0.00 0.00
20260505075748 20 46 6.4 1.6 0.00 0.00 0.00
20260505075250 21 21 3.2 8.0 0.00 0.00 0.00
20260505074252 20 51 9.7 4.8 0.00 0.00 0.00
20260505073751 20 6 3.2 6.4 0.00 0.00 0.00
20260505073252 20 6 3.2 6.4 0.00 0.00 0.00
20260505072753 19 49 1.6 4.8 0.00 0.00 0.00
20260505072255 18 332 6.4 6.4 0.00 0.00 0.00
20260505071756 18 11 1.6 8.0 0.00 0.00 0.00
20260505070756 18 297 6.4 6.4 0.00 0.00 0.00
20260505065758 18 307 0.0 0.0 0.00 0.00 0.00
20260505065300 17 307 0.0 0.0 0.00 0.00 0.00
20260505064757 17 307 3.2 0.0 0.00 0.00 0.00
20260505063800 17 350 4.8 8.0 0.00 0.00 0.00
20260505063302 17 319 0.0 3.2 0.00 0.00 0.00
20260505062803 17 356 3.2 6.4 0.00 0.00 0.00
20260505062304 16 307 3.2 3.2 0.00 0.00 0.00
20260505061803 16 308 0.0 0.0 0.00 0.00 0.00
20260505060806 16 298 3.2 6.4 0.00 0.00 0.00
20260505055805 16 274 1.6 1.6 0.00 0.00 0.00
20260505053811 15 129 0.0 0.0 0.00 0.00 0.00
20260505052312 13 150 0.0 0.0 0.00 0.00 0.00
20260505051315 14 150 0.0 0.0 0.00 0.00 0.00
20260505050813 14 150 0.0 0.0 0.00 0.00 0.00
20260505041323 13 250 0.0 0.0 0.00 0.00 0.00
20260505040824 13 250 0.0 0.0 0.00 0.00 0.00
20260505035827 12 232 3.2 3.2 0.00 0.00 0.00
20260505035325 12 11 0.0 0.0 0.00 0.00 0.00
20260505034328 12 314 0.0 0.0 0.00 0.00 0.00
20260505032828 12 335 4.8 3.2 0.00 0.00 0.00
20260505025335 12 297 4.8 4.8 0.00 0.00 0.00
20260505024338 12 307 0.0 0.0 0.00 0.00 0.00
20260505023836 12 298 0.0 0.0 0.00 0.00 0.00
20260505023338 12 307 0.0 0.0 0.00 0.00 0.00
20260505022839 12 307 0.0 0.0 0.00 0.00 0.00
20260505021341 12 300 0.0 0.0 0.00 0.00 0.00
20260505020842 13 300 0.0 0.0 0.00 0.00 0.00
20260505020343 13 300 0.0 0.0 0.00 0.00 0.00
20260505015844 14 300 0.0 0.0 0.00 0.00 0.00
20260505015346 13 312 1.6 6.4 0.00 0.00 0.00
20260505014844 14 323 4.8 4.8 0.00 0.00 0.00
20260505014346 13 315 4.8 4.8 0.00 0.00 0.00